Location: G�yn�k
(36.6721°N, 30.5542°E)
Time: 14:30:07
(UTC+00:00)

Cosmos 2322 - Pass Details

Date: 07 June 2020
Orbit: 840 x 855 km, 71.0° (Epoch: 13 July)

Event Time Altitude Azimuth Distance (km) Brightness Sun altitude
Exits shadow 01:01:47 23° 201° (SSW) 1,732 4.8 -16.3°
Maximum altitude 01:05:28 88° 290° (WNW) 858 3.7 -15.7°
Drops below altitude 10° 01:11:13 10° 21° (NNE) 2,490 7.2 -14.9°
Sets 01:13:41 0° 22° (NNE) 3,430 8.1 -14.6°
